Theta_e
304 304 305 305 305 305 305 305 306 308 309 312 310 308 308 308 310 311 312 314 315 318 318 318 315 316 316 319 317 315 324 329 327 323 328 345 345 344 340 351 351 350 351 350 352
304 304 305 305 305 305 305 306 306 307 309 312 311 309 309 310 312 314 313 314 317 319 318 319 317 318 320 320 320 321 324 329 324 323 337 345 345 346 344 350 350 350 352 352 351
304 304 304 305 305 305 305 306 306 307 309 312 312 309 310 311 315 317 320 314 317 319 320 319 317 321 322 319 319 319 323 321 324 328 338 345 345 343 342 348 346 346 354 353 352
304 304 304 305 305 305 306 306 306 307 309 312 312 310 311 314 321 320 318 317 316 319 317 317 320 323 322 322 319 321 321 320 321 323 338 342 345 345 342 344 344 347 350 352 354
304 304 304 305 305 306 306 306 306 308 309 313 312 311 313 315 315 314 321 317 317 319 318 319 322 321 323 321 319 320 322 320 320 318 329 338 344 346 343 342 344 345 352 352 353
303 304 304 305 306 306 306 306 307 309 309 313 312 312 314 315 312 318 320 315 319 318 317 320 322 322 322 322 322 321 320 321 321 318 321 334 340 342 342 341 347 348 354 352 352
303 304 304 305 306 306 306 306 313 312 309 314 312 313 317 318 314 315 318 315 317 318 318 318 320 322 320 322 320 321 323 321 320 319 324 328 334 340 338 342 345 351 354 353 352
303 303 304 305 306 306 305 308 316 311 311 313 313 315 318 316 315 316 318 318 317 318 318 319 319 321 321 320 321 322 322 324 322 328 330 333 330 332 339 345 346 349 352 353 353
303 303 304 305 305 305 306 313 312 312 313 313 315 315 319 317 318 317 319 320 318 318 319 318 318 319 319 322 324 323 325 325 324 321 335 331 334 333 340 347 348 349 351 352 353
302 303 304 305 305 304 308 316 315 314 314 315 318 318 316 319 319 318 320 319 320 320 320 320 319 321 319 322 321 323 325 324 325 323 324 329 330 329 338 346 348 348 350 350 351
302 303 303 305 304 305 310 317 316 317 317 316 315 317 316 318 320 318 318 319 321 322 323 320 322 323 322 321 321 322 322 323 323 322 322 325 325 324 328 344 346 348 349 349 349
301 301 302 304 303 309 309 313 310 309 316 315 316 317 317 318 319 320 318 321 322 324 321 323 323 323 320 319 320 320 323 324 324 322 323 324 327 324 326 335 340 345 346 346 345
299 299 300 302 303 303 307 310 303 308 316 318 316 317 318 318 319 320 319 321 323 323 323 324 322 320 322 322 323 323 324 326 325 324 322 324 327 326 323 335 340 336 336 336 335
298 297 297 300 302 300 305 306 304 310 319 319 317 318 318 320 320 320 320 322 321 324 322 323 321 321 322 324 324 326 323 324 324 326 326 323 326 326 323 329 328 339 338 337 334
298 297 297 297 299 301 303 302 311 310 321 318 317 316 319 319 321 322 319 321 323 322 322 323 322 322 324 323 323 324 322 323 325 326 326 325 325 326 327 329 330 340 337 332 331
298 297 297 301 299 302 303 304 313 320 320 321 317 317 321 322 321 321 321 320 321 321 321 322 320 321 324 321 322 322 324 324 324 326 327 325 326 326 332 332 334 338 334 330 326
297 297 297 300 303 301 301 313 321 320 317 322 318 319 320 320 321 323 322 323 324 323 323 322 322 321 321 323 321 323 327 327 328 327 327 324 326 327 332 335 339 337 333 328 324
297 297 299 299 300 301 303 318 318 317 318 319 321 319 321 319 321 321 323 323 321 322 323 323 322 322 321 323 324 324 327 330 328 327 325 324 328 331 332 336 336 332 328 324 322
297 298 299 301 302 300 315 320 319 315 318 320 318 323 319 318 319 321 324 324 323 323 324 325 324 321 320 321 323 324 327 325 328 324 326 325 331 332 334 336 334 333 329 326 322
298 299 301 305 305 304 314 315 315 315 319 316 317 322 322 320 320 321 322 322 323 322 325 325 326 322 321 321 320 324 322 328 328 331 329 326 328 331 335 335 336 335 333 326 321
298 302 304 307 302 309 312 316 314 315 317 318 321 322 322 324 322 320 321 320 323 321 322 323 326 324 323 324 324 323 324 325 328 328 332 330 328 330 334 334 337 336 333 327 323
297 302 305 305 311 312 311 315 314 316 315 315 319 319 316 320 325 325 322 323 321 320 322 324 328 327 325 323 326 322 325 329 328 334 330 331 329 328 333 332 333 335 331 325 322
300 300 304 307 315 315 316 316 316 314 313 311 315 319 321 322 323 327 328 324 320 321 323 323 328 326 329 328 327 329 328 326 330 332 335 339 332 330 331 333 332 333 329 324 321
300 304 309 310 312 316 316 316 315 316 317 317 317 320 322 322 322 325 324 324 324 325 327 327 327 328 329 325 329 333 330 327 331 333 334 333 331 331 334 335 334 332 328 324 320
298 300 307 315 314 316 316 317 317 318 317 318 320 319 322 325 325 325 327 325 325 327 322 331 333 329 328 327 328 330 329 328 330 330 331 331 331 330 331 334 333 333 327 323 320
300 304 307 310 311 314 316 320 320 320 320 320 321 321 322 324 326 328 330 328 328 326 325 325 333 330 329 327 328 329 329 330 329 327 328 328 331 327 326 328 331 331 327 324 321
300 300 305 308 312 312 316 317 318 316 316 317 318 321 324 323 324 327 327 329 329 328 329 330 332 330 331 329 326 328 328 329 328 328 329 329 327 327 329 330 331 332 328 326 321
Wind_Speed
24 23 23 23 22 22 22 20 21 17 11 9 7 7 7 8 10 9 7 7 8 10 9 8 4 4 2 2 2 1 2 4 4 5 3 8 9 5 3 9 5 9 4 5 18
24 24 24 23 23 22 22 21 21 18 11 8 6 6 7 9 10 10 8 8 8 17 9 7 5 5 3 1 1 1 2 4 3 3 3 12 10 11 8 9 8 9 4 16 22
25 26 26 25 24 23 22 21 21 18 11 8 6 5 6 8 4 3 1 15 15 11 7 7 8 3 3 2 3 3 2 4 5 5 4 11 10 9 9 10 15 18 13 20 22
26 27 27 28 26 24 23 22 22 17 10 7 4 3 4 3 2 2 5 15 17 11 10 7 4 4 4 5 3 3 6 5 1 7 6 8 10 12 15 5 14 11 15 21 19
26 27 28 29 27 26 25 23 23 15 8 6 3 2 1 2 6 4 5 21 19 15 8 6 5 4 4 4 4 4 4 4 9 6 11 7 14 12 17 8 8 12 17 20 18
28 28 29 30 28 28 26 27 21 13 7 5 4 3 2 4 2 6 3 25 18 12 8 6 3 3 2 3 5 4 7 8 5 4 5 9 9 9 13 15 8 16 19 20 20
29 30 30 31 29 30 28 27 18 10 5 3 5 3 2 10 4 4 5 15 16 12 7 5 3 1 2 3 1 2 5 1 2 3 4 10 5 16 12 15 16 17 16 19 20
30 31 31 31 30 29 31 23 13 4 2 4 5 2 6 4 5 7 13 9 10 9 3 3 3 0 2 0 0 1 1 2 4 3 4 2 7 14 9 14 17 16 15 17 21
31 31 31 31 31 31 25 15 4 3 4 5 3 1 7 4 5 6 16 7 9 8 4 3 1 1 1 2 2 2 3 2 2 2 7 6 3 1 12 13 14 16 16 17 18
31 32 32 31 31 31 19 3 3 4 4 2 1 3 5 1 0 6 12 9 4 9 4 3 2 3 2 4 5 5 4 2 2 4 4 7 11 8 7 14 17 17 16 17 19
31 33 33 30 31 22 16 1 2 2 2 6 3 3 3 6 0 4 9 7 3 3 6 3 5 7 5 4 2 3 1 2 4 2 4 7 8 6 5 13 18 19 16 18 21
30 32 33 30 29 9 8 4 4 4 8 11 15 10 10 4 4 2 13 8 5 7 5 4 8 7 4 7 5 5 5 7 5 1 4 2 6 2 3 7 14 12 12 11 8
29 30 32 30 19 7 5 6 11 2 4 6 7 6 7 12 7 6 12 8 6 8 7 7 2 6 5 5 7 6 8 6 5 1 2 4 4 4 4 4 5 7 8 6 6
29 29 30 32 3 18 3 3 19 9 4 4 4 4 7 9 5 11 13 8 3 12 7 4 4 6 6 4 7 5 8 8 5 4 3 2 3 2 7 10 11 12 11 12 11
29 28 27 23 17 7 3 15 7 3 4 2 3 2 5 12 7 10 8 4 13 7 7 6 6 10 6 4 6 1 1 5 4 4 2 1 3 3 5 5 9 12 12 12 13
30 28 29 12 14 15 11 15 4 2 7 1 4 6 8 9 2 5 6 4 4 7 2 9 1 3 3 3 3 7 4 5 3 1 4 2 3 2 2 3 6 7 9 9 8
31 30 26 16 5 8 14 3 3 5 4 3 2 5 5 9 6 8 13 12 10 10 11 4 8 3 3 5 3 4 3 2 4 4 3 2 2 2 2 0 2 2 3 5 5
34 30 20 20 6 6 3 3 7 4 5 3 1 2 8 9 9 5 13 14 8 8 5 10 7 9 7 12 3 4 4 3 4 4 1 2 3 2 1 4 3 3 3 4 5
33 17 14 6 8 12 3 9 7 6 2 4 6 4 6 7 6 6 12 18 17 12 8 5 7 2 5 3 6 5 4 3 6 2 3 1 2 5 6 4 4 5 5 6 8
20 10 7 5 6 9 5 7 4 4 3 1 3 1 5 9 10 15 10 7 10 13 7 6 2 1 3 5 8 2 9 4 2 4 6 4 3 5 10 8 8 8 8 7 8
6 4 7 4 15 3 9 7 7 6 5 3 2 3 3 3 7 8 13 3 11 11 9 7 3 2 3 4 7 4 4 4 3 0 4 4 4 3 12 12 11 9 8 9 11
5 3 5 14 4 2 8 5 4 3 3 3 2 5 5 3 4 5 10 8 6 12 11 9 6 10 11 2 2 1 4 5 4 5 1 1 2 2 7 8 9 8 9 10 11
5 3 1 2 4 5 3 5 3 4 4 2 3 6 0 3 3 4 5 0 10 11 12 10 6 5 4 3 2 5 4 3 6 3 6 4 2 1 6 7 8 10 10 10 12
2 2 2 3 2 3 6 5 7 3 5 5 5 4 3 4 3 5 5 2 3 5 5 6 4 9 10 7 4 5 5 7 1 5 7 5 4 7 11 11 10 10 11 12 12
2 1 3 3 7 7 2 1 9 4 3 5 5 11 7 5 4 4 2 5 3 5 4 3 5 4 3 7 6 7 12 8 3 4 3 4 6 5 5 13 13 10 12 12 13
2 2 3 3 3 5 8 4 7 5 4 4 5 2 12 6 5 7 5 3 3 3 3 1 4 4 3 4 11 11 10 8 4 5 3 4 8 2 2 4 8 10 13 13 13
2 2 2 3 2 2 5 13 6 5 6 12 6 6 6 13 5 2 1 5 4 4 3 3 8 5 6 3 2 4 8 8 5 6 4 6 4 1 3 3 5 9 11 12 13
Wind_Direction
12 10 7 6 4 1 359 356 354 347 334 326 311 302 301 298 294 285 246 225 197 176 153 125 125 137 110 115 88 172 179 139 143 176 135 170 180 180 132 150 182 182 158 173 157
7 6 4 2 360 358 354 351 350 345 330 322 307 298 298 303 301 253 249 190 169 160 168 164 149 156 118 131 163 183 207 179 191 180 180 178 189 163 173 162 203 197 123 146 155
3 2 1 359 356 353 350 345 344 340 327 317 300 293 299 313 273 231 89 186 162 167 165 163 138 164 154 178 186 149 204 202 216 204 169 177 181 176 174 195 201 201 175 162 166
1 360 358 355 351 349 345 340 338 334 320 306 286 279 298 315 178 148 318 181 174 169 144 133 142 150 152 185 184 233 237 219 240 195 173 183 175 195 201 204 206 201 178 170 175
356 355 354 352 349 346 342 338 332 325 306 290 252 243 302 259 254 330 18 164 163 163 163 163 165 154 179 169 167 233 267 224 259 228 226 184 194 189 219 225 215 191 177 183 182
355 352 351 349 347 344 339 335 327 313 286 268 208 185 138 258 221 45 136 161 168 160 161 162 177 197 143 173 208 214 259 275 295 297 196 197 194 198 228 204 195 190 187 188 188
353 351 349 348 346 342 338 333 326 304 263 228 186 165 186 248 209 290 161 169 183 177 160 190 171 211 146 185 250 266 291 318 78 131 161 162 191 220 213 195 199 198 190 192 197
350 349 347 346 344 340 337 332 329 299 205 174 168 155 251 236 267 272 185 177 177 181 151 139 166 114 244 7 24 263 258 183 63 165 131 235 196 230 192 184 207 205 196 197 203
347 346 345 344 343 339 340 338 28 93 136 149 139 186 262 282 252 218 178 169 165 179 194 119 82 64 162 189 243 44 194 156 98 38 153 225 241 331 181 191 209 205 205 206 212
344 343 343 343 343 339 342 9 73 103 127 122 102 285 251 149 160 158 171 143 151 146 144 158 116 166 121 201 222 208 190 200 202 180 200 208 239 255 204 205 218 213 208 212 217
342 340 340 341 342 340 352 319 299 197 219 221 194 248 271 309 349 158 168 147 114 143 169 146 199 207 215 209 173 147 174 265 266 275 248 218 253 267 187 223 229 225 212 218 223
339 338 338 338 341 348 6 67 67 311 298 241 240 256 256 304 314 164 159 162 171 179 146 165 230 213 160 165 176 188 208 226 266 248 209 210 263 256 283 257 253 252 248 260 265
339 338 335 337 338 360 16 115 348 223 251 278 210 217 222 180 215 238 181 155 166 163 181 205 126 156 169 171 186 206 213 209 238 120 88 302 229 17 33 56 97 56 25 19 358
339 339 337 338 3 335 293 322 337 177 288 256 217 236 162 156 222 201 179 171 147 195 163 232 190 204 208 238 200 230 218 247 205 186 252 319 279 66 2 71 44 22 13 0 340
338 336 337 345 306 297 299 326 345 163 297 123 164 129 156 189 141 196 174 136 181 163 180 196 187 184 185 174 188 312 293 183 165 141 235 126 262 103 6 38 12 9 11 13 18
334 330 331 330 297 284 310 334 140 231 246 334 137 162 159 216 199 119 158 84 122 150 213 220 224 222 163 176 214 156 112 76 84 113 246 55 290 155 12 320 320 6 23 29 42
329 321 312 283 245 291 320 305 186 222 339 165 168 170 188 187 194 164 176 180 182 192 206 203 226 231 189 252 142 161 153 143 202 215 276 79 226 348 2 130 278 324 43 49 57
326 319 305 263 252 277 265 175 213 226 257 317 2 211 192 165 206 155 169 187 198 174 169 207 226 197 183 217 215 176 203 175 213 220 204 135 218 128 63 123 147 136 125 110 102
327 320 295 281 239 206 211 206 208 211 297 317 302 229 196 200 205 168 187 200 192 180 186 166 230 210 202 153 182 149 191 83 113 71 240 187 225 213 169 178 184 189 180 148 131
325 317 275 290 182 150 201 226 232 229 325 335 259 283 210 184 178 194 185 187 194 193 187 188 179 196 123 125 55 207 135 153 130 192 238 187 235 235 202 212 211 213 203 161 147
332 310 338 200 141 177 207 218 227 237 238 230 278 290 284 212 205 185 195 170 200 182 198 160 212 152 192 202 195 147 178 67 100 305 238 236 221 203 188 198 204 211 193 174 168
338 264 10 141 185 185 213 203 207 231 186 263 254 258 252 294 195 171 185 216 173 150 182 187 193 232 242 46 307 237 169 171 224 190 169 274 203 196 174 181 201 204 188 176 172
325 283 24 262 211 201 217 227 247 220 217 224 260 232 166 261 222 181 168 21 153 163 164 171 203 198 169 166 167 211 166 149 111 128 178 169 190 161 192 197 205 203 184 178 171
289 281 165 201 275 266 199 215 213 214 238 219 255 279 245 239 219 191 152 114 129 146 92 122 135 199 214 213 139 172 158 163 290 185 168 208 175 191 211 220 211 197 182 181 178
224 281 347 197 230 249 262 255 193 211 228 214 218 229 237 226 185 192 161 137 99 145 86 154 151 170 105 162 161 157 162 167 163 148 225 152 214 240 244 229 225 193 172 179 181
295 328 338 281 284 249 220 223 221 251 235 240 227 276 222 230 222 182 173 199 163 123 111 115 121 126 115 123 144 137 150 170 150 170 232 214 253 266 258 283 206 192 177 187 185
318 285 278 285 260 210 230 228 232 189 245 242 284 292 221 222 240 310 60 104 107 148 128 137 145 156 155 103 86 182 192 178 156 177 189 228 260 167 236 251 237 203 190 190 183